Regional Weather Roundup
Issued by NWS Cleveland, OH

Home | Current Version | Previous Version | Text Only | Print | Product List | Glossary Off
Versions: 1 2 3 4 5 6 7 8 9 10 11 12 13 14 15 16 17 18 19 20 21 22 23 24 25 26 27 28 29 30 31 32 33 34 35 36 37 38 39 40 41 42 43 44 45 46 47 48 49 50

000
ASUS41 KCLE 170110
RWRCLE
OHIO REGIONAL WEATHER ROUNDUP
NATIONAL WEATHER SERVICE CLEVELAND, OH
800 PM EST TUE JAN 16 2018

NOTE: "FAIR" INDICATES FEW OR NO CLOUDS BELOW 12,000 FEET WITH NO
SIGNIFICANT WEATHER AND/OR OBSTRUCTIONS TO VISIBILITY.

OHZ001>008-015>018-024>027-034-035-043-044-170200-
   NORTHWEST OHIO

CITY           SKY/WX    TMP DP  RH WIND       PRES   REMARKS
DEFIANCE       FAIR       2  -4  76 SW5       30.50R WCI  -8
FINDLAY        FLURRIES   2  -5  72 SW6       30.49R WCI  -9
TOLEDO EXPRESS FAIR       2  -2  83 SW6       30.48R WCI  -9
TOLEDO EXEC    FAIR       3  -4  72 SW12      30.49S WCI -13
LIMA             N/A      2  -2  83 SW7       30.48S WCI -11
$$

OHZ009>014-019>023-028>033-038-089-170200-
   NORTHEAST OHIO

CITY           SKY/WX    TMP DP  RH WIND       PRES   REMARKS
CLE-HOPKINS    FAIR       6  -1  73 SW10      30.49R WCI  -9
CLE-LAKEFRONT  MOCLDY     8  -1  66 SW13      30.48R WCI  -8
CUY CO. ARPT   CLOUDY    10   3  72 SW16      30.45R WCI  -7
LORAIN-ELYRIA  FAIR       2  -6  69 W8        30.48R WCI -12
ASHTABULA      CLOUDY    12   5  73 W8        30.43R WCI   0
AKRON-CANTON   FAIR       6  -1  73 CALM      30.42R
WOOSTER        FAIR       3  -2  79 W6        30.44R WCI  -8
MANSFIELD      FAIR       2  -2  83 W8        30.43R WCI -12
YOUNGSTOWN     MOCLDY     5   0  79 SW7       30.40S WCI  -7
$$

OHZ042-051>053-060>062-070>072-077>081-170200-
  SOUTHWEST OHIO

CITY           SKY/WX    TMP DP  RH WIND       PRES   REMARKS
CINC-COVINGTON CLOUDY     8   2  76 W8        30.53R WCI  -4
CINC-LUNKEN    CLOUDY    11   2  67 W10       30.59R WCI  -3
HAMILTON       CLOUDY     9   1  70 W8        30.57R WCI  -3
DAYTON         CLOUDY     5   1  83 W10       30.51R WCI -10
WRIGHT-PAT AFB CLOUDY     7  -2  65 W9        30.52R WCI  -7
DAYTON GENERAL CLOUDY     7   0  73 W10       30.51R WCI  -8
WILMINGTON     CLOUDY     8   1  73 W12       30.49R WCI  -7
$$

OHZ036-037-039>041-045>050-054>059-063>069-073>076-082>088-170200-
  CENTRAL AND SOUTHEAST OHIO

CITY           SKY/WX    TMP DP  RH WIND       PRES   REMARKS
COLUMBUS       FLURRIES   8   2  76 NW10      30.51R WCI  -6
OSU AIRPORT    CLOUDY     6   1  80 W8        30.50R WCI  -7
BOLTON FIELD   NOT AVBL
RICKENBACK AFB CLOUDY     6   0  76 W5        30.51S WCI  -3
NEWARK         CLOUDY     6  -1  73 SW5       30.49R WCI  -3
MARION         MOCLDY     2  -3  80 W7        30.49R WCI -11
LANCASTER      CLOUDY     7  -1  70 SW6       30.51R WCI  -3
ZANESVILLE     CLOUDY     6  -2  69 W8        30.49R WCI  -7
NEW PHILLY     NOT AVBL
$$




USA.gov is the U.S. government's official web portal to all federal, state and local government web resources and services.